Time,TemperatureF,DewpointF,PressureIn,WindDirection,WindDirectionDegrees,WindSpeedMPH,WindSpeedGustMPH,Humidity,HourlyPrecipIn,Conditions,Clouds,dailyrainin,SoftwareType,DateUTC
2013-01-15 00:00:00,8.3,4.7,30.37,ESE,114,0.0,0.0,85,0.00,,,0.00,Custom v0.1,2013-01-15 06:00:00,
2013-01-15 00:05:00,8.1,4.5,30.37,ESE,114,0.0,0.0,85,0.00,,,0.00,Custom v0.1,2013-01-15 06:05:00,
2013-01-15 00:10:00,7.9,4.3,30.37,ESE,114,0.0,0.0,85,0.00,,,0.00,Custom v0.1,2013-01-15 06:10:00,
2013-01-15 00:15:00,7.9,4.3,30.37,ESE,114,0.0,0.0,85,0.00,,,0.00,Custom v0.1,2013-01-15 06:15:00,
2013-01-15 00:20:00,7.7,4.1,30.36,ESE,114,0.0,0.0,85,0.00,,,0.00,Custom v0.1,2013-01-15 06:20:00,
2013-01-15 00:25:00,7.7,4.1,30.36,ESE,114,0.0,0.0,85,0.00,,,0.00,Custom v0.1,2013-01-15 06:25:00,
2013-01-15 00:35:00,7.6,4.0,30.36,ESE,113,0.0,0.0,85,0.00,,,0.00,Custom v0.1,2013-01-15 06:35:00,
2013-01-15 00:40:00,7.7,4.4,30.36,ESE,114,0.0,0.0,86,0.00,,,0.00,Custom v0.1,2013-01-15 06:40:00,
2013-01-15 00:45:00,7.7,4.4,30.36,ESE,114,0.0,0.0,86,0.00,,,0.00,Custom v0.1,2013-01-15 06:45:00,
2013-01-15 00:50:00,7.6,4.0,30.36,ESE,114,0.0,0.0,85,0.00,,,0.00,Custom v0.1,2013-01-15 06:50:00,
2013-01-15 00:55:00,7.6,4.0,30.36,ESE,113,0.0,0.0,85,0.00,,,0.00,Custom v0.1,2013-01-15 06:55:00,
2013-01-15 01:00:00,7.4,3.8,30.36,ESE,114,0.0,0.0,85,0.00,,,0.00,Custom v0.1,2013-01-15 07:00:00,
2013-01-15 01:05:00,7.2,3.6,30.36,ESE,114,0.0,0.0,85,0.00,,,0.00,Custom v0.1,2013-01-15 07:05:00,
2013-01-15 01:10:00,7.2,3.6,30.36,ESE,114,0.0,0.0,85,0.00,,,0.00,Custom v0.1,2013-01-15 07:10:00,
2013-01-15 01:15:00,7.2,3.6,30.36,ESE,114,0.0,0.0,85,0.00,,,0.00,Custom v0.1,2013-01-15 07:15:00,
2013-01-15 01:20:00,7.2,3.6,30.36,ESE,114,0.0,0.0,85,0.00,,,0.00,Custom v0.1,2013-01-15 07:20:00,
2013-01-15 02:25:00,6.9,3.3,30.34,ESE,114,0.0,0.0,85,0.00,,,0.00,Custom v0.1,2013-01-15 08:25:00,
2013-01-15 02:35:00,6.9,3.3,30.34,ESE,114,0.0,0.0,85,0.00,,,0.00,Custom v0.1,2013-01-15 08:35:00,
2013-01-15 02:40:00,6.9,3.3,30.34,ESE,113,0.0,0.0,85,0.00,,,0.00,Custom v0.1,2013-01-15 08:40:00,
2013-01-15 02:45:00,6.7,3.1,30.34,ESE,114,0.0,0.0,85,0.00,,,0.00,Custom v0.1,2013-01-15 08:45:00,
2013-01-15 02:50:00,6.7,3.1,30.35,ESE,114,0.0,0.0,85,0.00,,,0.00,Custom v0.1,2013-01-15 08:50:00,
2013-01-15 02:55:00,6.7,3.1,30.35,ESE,114,0.0,0.0,85,0.00,,,0.00,Custom v0.1,2013-01-15 08:55:00,
2013-01-15 03:00:00,6.5,2.9,30.35,ESE,114,0.0,0.0,85,0.00,,,0.00,Custom v0.1,2013-01-15 09:00:00,
2013-01-15 03:05:00,6.5,2.9,30.34,ESE,114,0.0,0.0,85,0.00,,,0.00,Custom v0.1,2013-01-15 09:05:00,
2013-01-15 03:10:00,6.7,3.1,30.34,ESE,114,0.0,0.0,85,0.00,,,0.00,Custom v0.1,2013-01-15 09:10:00,
2013-01-15 03:15:00,6.7,3.1,30.34,ESE,113,0.0,0.0,85,0.00,,,0.00,Custom v0.1,2013-01-15 09:15:00,
2013-01-15 03:20:00,6.7,3.1,30.33,ESE,114,0.0,0.0,85,0.00,,,0.00,Custom v0.1,2013-01-15 09:20:00,
2013-01-15 03:25:00,6.5,2.9,30.33,ESE,114,0.0,0.0,85,0.00,,,0.00,Custom v0.1,2013-01-15 09:25:00,
2013-01-15 03:30:00,6.3,2.7,30.33,ESE,114,0.0,0.0,85,0.00,,,0.00,Custom v0.1,2013-01-15 09:30:00,
2013-01-15 03:35:00,6.1,2.5,30.33,ESE,114,0.0,0.0,85,0.00,,,0.00,Custom v0.1,2013-01-15 09:35:00,
2013-01-15 03:45:00,6.0,2.4,30.33,ESE,114,0.0,0.0,85,0.00,,,0.00,Custom v0.1,2013-01-15 09:45:00,
2013-01-15 03:50:00,5.8,2.0,30.33,ESE,113,0.0,0.0,84,0.00,,,0.00,Custom v0.1,2013-01-15 09:50:00,
2013-01-15 03:55:00,5.8,2.0,30.33,ESE,114,0.0,0.0,84,0.00,,,0.00,Custom v0.1,2013-01-15 09:55:00,
2013-01-15 04:00:00,5.8,2.0,30.33,ESE,114,0.0,0.0,84,0.00,,,0.00,Custom v0.1,2013-01-15 10:00:00,
2013-01-15 04:05:00,5.8,2.0,30.32,ESE,114,0.0,0.0,84,0.00,,,0.00,Custom v0.1,2013-01-15 10:05:00,
2013-01-15 04:10:00,5.8,2.0,30.32,ESE,114,0.0,0.0,84,0.00,,,0.00,Custom v0.1,2013-01-15 10:10:00,
2013-01-15 04:15:00,5.6,1.8,30.32,ESE,114,0.0,0.0,84,0.00,,,0.00,Custom v0.1,2013-01-15 10:15:00,
2013-01-15 04:20:00,5.6,1.8,30.32,ESE,114,0.0,0.0,84,0.00,,,0.00,Custom v0.1,2013-01-15 10:20:00,
2013-01-15 04:25:00,5.6,1.8,30.32,ESE,114,0.0,0.0,84,0.00,,,0.00,Custom v0.1,2013-01-15 10:25:00,
2013-01-15 04:35:00,5.6,1.8,30.32,ESE,114,0.0,0.0,84,0.00,,,0.00,Custom v0.1,2013-01-15 10:35:00,
2013-01-15 04:40:00,5.8,2.2,30.32,ESE,113,0.0,0.0,85,0.00,,,0.00,Custom v0.1,2013-01-15 10:40:00,
2013-01-15 04:45:00,5.8,2.0,30.32,ESE,113,0.0,0.0,84,0.00,,,0.00,Custom v0.1,2013-01-15 10:45:00,
2013-01-15 04:55:00,6.0,2.4,30.32,ESE,114,0.0,0.0,85,0.00,,,0.00,Custom v0.1,2013-01-15 10:55:00,
2013-01-15 05:00:00,6.0,2.4,30.32,ESE,114,0.0,0.0,85,0.00,,,0.00,Custom v0.1,2013-01-15 11:00:00,
2013-01-15 05:05:00,6.3,2.7,30.32,ESE,114,0.0,0.0,85,0.00,,,0.00,Custom v0.1,2013-01-15 11:05:00,
2013-01-15 05:10:00,6.3,2.7,30.32,ESE,114,0.0,0.0,85,0.00,,,0.00,Custom v0.1,2013-01-15 11:10:00,
2013-01-15 05:20:00,6.3,2.7,30.32,ESE,114,0.0,0.0,85,0.00,,,0.00,Custom v0.1,2013-01-15 11:20:00,
2013-01-15 05:25:00,6.3,2.7,30.32,ESE,114,0.0,0.0,85,0.00,,,0.00,Custom v0.1,2013-01-15 11:25:00,
2013-01-15 05:30:00,6.3,2.7,30.32,ESE,114,0.0,0.0,85,0.00,,,0.00,Custom v0.1,2013-01-15 11:30:00,
2013-01-15 05:40:00,6.3,2.5,30.33,ESE,114,0.0,0.0,84,0.00,,,0.00,Custom v0.1,2013-01-15 11:40:00,
2013-01-15 05:45:00,6.1,2.3,30.33,ESE,114,0.0,0.0,84,0.00,,,0.00,Custom v0.1,2013-01-15 11:45:00,
2013-01-15 05:50:00,6.0,2.2,30.34,ESE,114,0.0,0.0,84,0.00,,,0.00,Custom v0.1,2013-01-15 11:50:00,
2013-01-15 05:55:00,6.0,2.2,30.34,ESE,114,0.0,0.0,84,0.00,,,0.00,Custom v0.1,2013-01-15 11:55:00,
2013-01-15 06:05:00,5.8,2.0,30.33,ESE,114,0.0,0.0,84,0.00,,,0.00,Custom v0.1,2013-01-15 12:05:00,
2013-01-15 06:10:00,5.6,1.8,30.33,ESE,113,0.0,0.0,84,0.00,,,0.00,Custom v0.1,2013-01-15 12:10:00,
2013-01-15 06:15:00,5.6,1.8,30.33,ESE,114,0.0,0.0,84,0.00,,,0.00,Custom v0.1,2013-01-15 12:15:00,
2013-01-15 06:20:00,5.6,1.8,30.35,ESE,114,0.0,0.0,84,0.00,,,0.00,Custom v0.1,2013-01-15 12:20:00,
2013-01-15 06:25:00,5.6,1.8,30.35,ESE,114,0.0,0.0,84,0.00,,,0.00,Custom v0.1,2013-01-15 12:25:00,
2013-01-15 06:35:00,5.6,1.8,30.35,ESE,114,0.0,0.0,84,0.00,,,0.00,Custom v0.1,2013-01-15 12:35:00,
2013-01-15 06:40:00,5.6,1.8,30.35,ESE,113,0.0,0.0,84,0.00,,,0.00,Custom v0.1,2013-01-15 12:40:00,
2013-01-15 06:50:00,5.6,1.8,30.36,ESE,114,0.0,0.0,84,0.00,,,0.00,Custom v0.1,2013-01-15 12:50:00,
2013-01-15 07:00:00,5.4,1.6,30.36,ESE,114,0.0,0.0,84,0.00,,,0.00,Custom v0.1,2013-01-15 13:00:00,
2013-01-15 07:05:00,5.4,1.6,30.36,ESE,114,0.0,0.0,84,0.00,,,0.00,Custom v0.1,2013-01-15 13:05:00,
2013-01-15 07:10:00,5.2,1.4,30.36,ESE,113,0.0,0.0,84,0.00,,,0.00,Custom v0.1,2013-01-15 13:10:00,
2013-01-15 07:15:00,5.2,1.4,30.36,ESE,114,0.0,0.0,84,0.00,,,0.00,Custom v0.1,2013-01-15 13:15:00,
2013-01-15 07:20:00,5.0,1.2,30.35,ESE,114,0.0,0.0,84,0.00,,,0.00,Custom v0.1,2013-01-15 13:20:00,
2013-01-15 07:25:00,5.0,1.2,30.35,ESE,114,0.0,0.0,84,0.00,,,0.00,Custom v0.1,2013-01-15 13:25:00,
2013-01-15 07:30:00,4.8,1.0,30.35,ESE,114,0.0,0.0,84,0.00,,,0.00,Custom v0.1,2013-01-15 13:30:00,
2013-01-15 07:40:00,5.0,1.2,30.35,ESE,114,0.0,0.0,84,0.00,,,0.00,Custom v0.1,2013-01-15 13:40:00,
2013-01-15 07:45:00,5.2,1.4,30.35,ESE,114,0.0,0.0,84,0.00,,,0.00,Custom v0.1,2013-01-15 13:45:00,
2013-01-15 07:50:00,5.6,1.8,30.36,ESE,114,0.0,0.0,84,0.00,,,0.00,Custom v0.1,2013-01-15 13:50:00,
2013-01-15 08:00:00,6.0,2.2,30.36,ESE,114,0.0,0.0,84,0.00,,,0.00,Custom v0.1,2013-01-15 14:00:00,
2013-01-15 08:10:00,6.3,2.5,30.35,ESE,114,0.0,0.0,84,0.00,,,0.00,Custom v0.1,2013-01-15 14:10:00,
2013-01-15 08:15:00,7.0,3.4,30.35,ESE,114,0.0,0.0,85,0.00,,,0.00,Custom v0.1,2013-01-15 14:15:00,
2013-01-15 08:20:00,7.7,4.4,30.34,WSW,254,0.0,0.0,86,0.00,,,0.00,Custom v0.1,2013-01-15 14:20:00,
2013-01-15 08:25:00,8.6,5.2,30.34,WSW,254,0.0,0.0,86,0.00,,,0.00,Custom v0.1,2013-01-15 14:25:00,
2013-01-15 08:30:00,9.7,6.3,30.34,WSW,254,0.0,0.0,86,0.00,,,0.00,Custom v0.1,2013-01-15 14:30:00,
2013-01-15 08:40:00,11.4,8.0,30.34,WSW,254,0.0,0.0,86,0.00,,,0.00,Custom v0.1,2013-01-15 14:40:00,
2013-01-15 08:45:00,12.3,8.9,30.34,WSW,254,0.0,0.0,86,0.00,,,0.00,Custom v0.1,2013-01-15 14:45:00,
2013-01-15 08:55:00,14.1,10.6,30.34,WSW,254,0.0,0.0,86,0.00,,,0.00,Custom v0.1,2013-01-15 14:55:00,
2013-01-15 09:00:00,14.8,10.8,30.34,WSW,254,0.0,0.0,84,0.00,,,0.00,Custom v0.1,2013-01-15 15:00:00,
2013-01-15 09:05:00,15.6,11.6,30.33,WSW,254,0.0,0.0,84,0.00,,,0.00,Custom v0.1,2013-01-15 15:05:00,
2013-01-15 09:10:00,16.2,12.2,30.33,WSW,254,0.0,0.0,84,0.00,,,0.00,Custom v0.1,2013-01-15 15:10:00,
2013-01-15 09:15:00,17.0,12.7,30.33,WSW,254,0.0,0.0,83,0.00,,,0.00,Custom v0.1,2013-01-15 15:15:00,
2013-01-15 09:20:00,17.7,12.9,30.33,WSW,254,0.0,0.0,81,0.00,,,0.00,Custom v0.1,2013-01-15 15:20:00,
2013-01-15 09:25:00,18.1,13.0,30.33,WSW,254,0.0,0.0,80,0.00,,,0.00,Custom v0.1,2013-01-15 15:25:00,
2013-01-15 09:35:00,18.4,12.4,30.34,WSW,254,0.0,0.0,77,0.00,,,0.00,Custom v0.1,2013-01-15 15:35:00,
2013-01-15 09:40:00,18.6,12.3,30.34,WSW,254,0.0,0.0,76,0.00,,,0.00,Custom v0.1,2013-01-15 15:40:00,
2013-01-15 09:50:00,18.9,12.6,30.34,WSW,254,0.0,0.0,76,0.00,,,0.00,Custom v0.1,2013-01-15 15:50:00,
2013-01-15 10:00:00,19.1,12.5,30.34,SSW,213,0.0,0.0,75,0.00,,,0.00,Custom v0.1,2013-01-15 16:00:00,
2013-01-15 10:05:00,19.5,12.9,30.34,SSW,213,0.0,0.0,75,0.00,,,0.00,Custom v0.1,2013-01-15 16:05:00,
2013-01-15 10:10:00,19.9,13.0,30.34,SSW,213,0.0,0.0,74,0.00,,,0.00,Custom v0.1,2013-01-15 16:10:00,
2013-01-15 10:15:00,20.3,13.1,30.34,SSW,213,0.0,0.0,73,0.00,,,0.00,Custom v0.1,2013-01-15 16:15:00,
2013-01-15 10:20:00,20.5,13.3,30.33,SSW,209,0.0,0.0,73,0.00,,,0.00,Custom v0.1,2013-01-15 16:20:00,
2013-01-15 10:25:00,20.3,13.1,30.33,SSW,207,0.0,0.0,73,0.00,,,0.00,Custom v0.1,2013-01-15 16:25:00,
2013-01-15 10:30:00,20.6,13.4,30.33,SSW,207,0.0,0.0,73,0.00,,,0.00,Custom v0.1,2013-01-15 16:30:00,
2013-01-15 10:35:00,21.0,13.7,30.34,SSW,207,0.0,0.0,73,0.00,,,0.00,Custom v0.1,2013-01-15 16:35:00,
2013-01-15 10:40:00,21.4,14.1,30.34,SE,138,0.0,0.0,73,0.00,,,0.00,Custom v0.1,2013-01-15 16:40:00,
2013-01-15 10:45:00,21.6,14.0,30.34,SE,125,0.0,0.0,72,0.00,,,0.00,Custom v0.1,2013-01-15 16:45:00,
2013-01-15 10:50:00,21.9,14.6,30.34,East,100,3.0,3.0,73,0.00,,,0.00,Custom v0.1,2013-01-15 16:50:00,
2013-01-15 10:55:00,22.2,15.8,30.34,SE,141,0.0,0.0,76,0.00,,,0.00,Custom v0.1,2013-01-15 16:55:00,
2013-01-15 11:00:00,22.2,14.6,30.34,SE,134,3.0,3.0,72,0.00,,,0.00,Custom v0.1,2013-01-15 17:00:00,
2013-01-15 11:05:00,22.4,15.1,30.34,East,94,3.0,3.0,73,0.00,,,0.00,Custom v0.1,2013-01-15 17:05:00,
2013-01-15 11:10:00,22.5,15.5,30.34,East,94,2.0,2.0,74,0.00,,,0.00,Custom v0.1,2013-01-15 17:10:00,
2013-01-15 11:15:00,22.7,15.4,30.34,East,93,3.0,3.0,73,0.00,,,0.00,Custom v0.1,2013-01-15 17:15:00,
2013-01-15 11:20:00,22.9,15.6,30.33,East,94,6.0,6.0,73,0.00,,,0.00,Custom v0.1,2013-01-15 17:20:00,
2013-01-15 11:25:00,23.0,15.4,30.33,East,96,4.0,4.0,72,0.00,,,0.00,Custom v0.1,2013-01-15 17:25:00,
2013-01-15 11:30:00,23.3,15.7,30.33,East,101,3.0,3.0,72,0.00,,,0.00,Custom v0.1,2013-01-15 17:30:00,
2013-01-15 11:35:00,23.3,15.7,30.32,East,80,0.0,0.0,72,0.00,,,0.00,Custom v0.1,2013-01-15 17:35:00,
2013-01-15 11:40:00,23.6,15.6,30.32,ESE,111,0.0,0.0,71,0.00,,,0.00,Custom v0.1,2013-01-15 17:40:00,
2013-01-15 11:45:00,23.8,15.5,30.32,East,99,5.0,5.0,70,0.00,,,0.00,Custom v0.1,2013-01-15 17:45:00,
2013-01-15 11:50:00,23.9,15.3,30.31,East,97,1.0,1.0,69,0.00,,,0.00,Custom v0.1,2013-01-15 17:50:00,
2013-01-15 11:55:00,24.4,15.7,30.31,ESE,113,3.0,3.0,69,0.00,,,0.00,Custom v0.1,2013-01-15 17:55:00,
2013-01-15 12:00:00,24.5,15.5,30.31,ESE,108,0.0,1.0,68,0.00,,,0.00,Custom v0.1,2013-01-15 18:00:00,
2013-01-15 12:05:00,24.8,15.8,30.30,ESE,104,0.0,0.0,68,0.00,,,0.00,Custom v0.1,2013-01-15 18:05:00,
2013-01-15 12:10:00,24.8,14.8,30.30,ESE,103,4.0,4.0,65,0.00,,,0.00,Custom v0.1,2013-01-15 18:10:00,
2013-01-15 12:15:00,25.0,15.3,30.30,SSE,152,1.0,3.0,66,0.00,,,0.00,Custom v0.1,2013-01-15 18:15:00,
2013-01-15 12:20:00,25.8,15.4,30.28,SSW,212,1.0,1.0,64,0.00,,,0.00,Custom v0.1,2013-01-15 18:20:00,
2013-01-15 12:25:00,26.4,15.9,30.28,SW,234,0.0,0.0,64,0.00,,,0.00,Custom v0.1,2013-01-15 18:25:00,
2013-01-15 12:30:00,26.3,15.1,30.28,ESE,103,1.0,2.0,62,0.00,,,0.00,Custom v0.1,2013-01-15 18:30:00,
2013-01-15 12:35:00,26.0,14.4,30.28,SSE,147,0.0,0.0,61,0.00,,,0.00,Custom v0.1,2013-01-15 18:35:00,
2013-01-15 12:40:00,25.8,14.2,30.28,SW,223,0.0,0.0,61,0.00,,,0.00,Custom v0.1,2013-01-15 18:40:00,
2013-01-15 12:45:00,26.3,14.3,30.28,NW,313,0.0,0.0,60,0.00,,,0.00,Custom v0.1,2013-01-15 18:45:00,
2013-01-15 12:50:00,26.6,13.4,30.27,NNE,20,0.0,0.0,57,0.00,,,0.00,Custom v0.1,2013-01-15 18:50:00,
2013-01-15 12:55:00,26.9,13.7,30.27,NNE,20,0.0,0.0,57,0.00,,,0.00,Custom v0.1,2013-01-15 18:55:00,
2013-01-15 13:00:00,27.2,14.4,30.27,NNE,21,0.0,0.0,58,0.00,,,0.00,Custom v0.1,2013-01-15 19:00:00,
2013-01-15 13:05:00,27.5,15.1,30.26,NW,305,0.0,0.0,59,0.00,,,0.00,Custom v0.1,2013-01-15 19:05:00,
2013-01-15 13:10:00,27.6,14.8,30.26,North,4,0.0,0.0,58,0.00,,,0.00,Custom v0.1,2013-01-15 19:10:00,
2013-01-15 13:15:00,27.3,14.1,30.26,North,4,0.0,0.0,57,0.00,,,0.00,Custom v0.1,2013-01-15 19:15:00,
2013-01-15 13:20:00,27.3,14.1,30.25,North,354,0.0,0.0,57,0.00,,,0.00,Custom v0.1,2013-01-15 19:20:00,
2013-01-15 13:30:00,26.9,12.9,30.25,East,83,0.0,0.0,55,0.00,,,0.00,Custom v0.1,2013-01-15 19:30:00,
2013-01-15 13:35:00,27.0,13.0,30.24,NE,45,0.0,0.0,55,0.00,,,0.00,Custom v0.1,2013-01-15 19:35:00,
2013-01-15 13:40:00,27.2,11.4,30.24,NNE,22,0.0,0.0,51,0.00,,,0.00,Custom v0.1,2013-01-15 19:40:00,
2013-01-15 13:45:00,27.3,10.6,30.24,NE,52,0.0,0.0,49,0.00,,,0.00,Custom v0.1,2013-01-15 19:45:00,
2013-01-15 13:50:00,27.2,11.8,30.24,SE,137,0.0,0.0,52,0.00,,,0.00,Custom v0.1,2013-01-15 19:50:00,
2013-01-15 13:55:00,27.3,13.2,30.24,ESE,106,0.0,0.0,55,0.00,,,0.00,Custom v0.1,2013-01-15 19:55:00,
2013-01-15 14:00:00,27.5,13.0,30.24,NE,41,0.0,0.0,54,0.00,,,0.00,Custom v0.1,2013-01-15 20:00:00,
2013-01-15 14:05:00,27.8,14.6,30.23,East,97,0.0,0.0,57,0.00,,,0.00,Custom v0.1,2013-01-15 20:05:00,
2013-01-15 14:10:00,28.4,14.3,30.23,ENE,68,0.0,0.0,55,0.00,,,0.00,Custom v0.1,2013-01-15 20:10:00,
2013-01-15 14:15:00,28.5,14.4,30.23,East,96,2.0,2.0,55,0.00,,,0.00,Custom v0.1,2013-01-15 20:15:00,
2013-01-15 14:20:00,28.1,13.6,30.23,East,93,2.0,2.0,54,0.01,,,0.01,Custom v0.1,2013-01-15 20:20:00,
2013-01-15 14:25:00,27.9,12.9,30.23,ESE,107,3.0,3.0,53,0.01,,,0.01,Custom v0.1,2013-01-15 20:25:00,
2013-01-15 14:30:00,28.2,14.1,30.23,ESE,103,0.0,0.0,55,0.01,,,0.01,Custom v0.1,2013-01-15 20:30:00,
2013-01-15 14:35:00,28.7,12.8,30.22,ENE,59,0.0,0.0,51,0.01,,,0.01,Custom v0.1,2013-01-15 20:35:00,
2013-01-15 14:40:00,28.8,11.0,30.22,ENE,63,2.0,2.0,47,0.01,,,0.01,Custom v0.1,2013-01-15 20:40:00,
2013-01-15 14:45:00,28.7,10.9,30.22,East,97,0.0,0.0,47,0.01,,,0.01,Custom v0.1,2013-01-15 20:45:00,
2013-01-15 14:50:00,28.8,9.5,30.23,East,97,1.0,1.0,44,0.01,,,0.01,Custom v0.1,2013-01-15 20:50:00,
2013-01-15 14:55:00,28.5,10.7,30.23,East,97,3.0,3.0,47,0.01,,,0.01,Custom v0.1,2013-01-15 20:55:00,
2013-01-15 15:00:00,28.2,11.9,30.23,East,96,0.0,0.0,50,0.01,,,0.01,Custom v0.1,2013-01-15 21:00:00,
2013-01-15 15:05:00,28.2,10.4,30.23,East,99,6.0,6.0,47,0.01,,,0.01,Custom v0.1,2013-01-15 21:05:00,
2013-01-15 15:10:00,27.9,10.6,30.23,ESE,110,0.0,0.0,48,0.01,,,0.01,Custom v0.1,2013-01-15 21:10:00,
2013-01-15 15:15:00,28.1,10.8,30.23,ESE,120,0.0,0.0,48,0.01,,,0.01,Custom v0.1,2013-01-15 21:15:00,
2013-01-15 15:20:00,28.2,10.9,30.22,ESE,117,0.0,0.0,48,0.00,,,0.01,Custom v0.1,2013-01-15 21:20:00,
2013-01-15 15:25:00,28.8,11.0,30.22,ESE,121,3.0,3.0,47,0.00,,,0.01,Custom v0.1,2013-01-15 21:25:00,
2013-01-15 15:30:00,29.3,11.4,30.22,ESE,107,0.0,0.0,47,0.00,,,0.01,Custom v0.1,2013-01-15 21:30:00,
2013-01-15 15:35:00,29.1,11.7,30.22,ESE,107,0.0,0.0,48,0.00,,,0.01,Custom v0.1,2013-01-15 21:35:00,
2013-01-15 15:45:00,28.5,11.7,30.22,East,101,2.0,2.0,49,0.00,,,0.01,Custom v0.1,2013-01-15 21:45:00,
2013-01-15 15:50:00,28.5,13.5,30.21,East,101,0.0,0.0,53,0.00,,,0.01,Custom v0.1,2013-01-15 21:50:00,
2013-01-15 16:00:00,28.7,14.1,30.21,East,100,0.0,0.0,54,0.00,,,0.01,Custom v0.1,2013-01-15 22:00:00,
2013-01-15 16:05:00,28.4,13.8,30.21,East,100,0.0,0.0,54,0.00,,,0.01,Custom v0.1,2013-01-15 22:05:00,
2013-01-15 16:10:00,28.4,14.3,30.21,East,100,0.0,0.0,55,0.00,,,0.01,Custom v0.1,2013-01-15 22:10:00,
2013-01-15 16:15:00,28.4,13.4,30.21,East,100,0.0,0.0,53,0.00,,,0.01,Custom v0.1,2013-01-15 22:15:00,
2013-01-15 16:20:00,28.2,12.3,30.21,East,92,0.0,0.0,51,0.00,,,0.01,Custom v0.1,2013-01-15 22:20:00,
2013-01-15 16:25:00,28.2,11.9,30.21,East,92,0.0,0.0,50,0.00,,,0.01,Custom v0.1,2013-01-15 22:25:00,
2013-01-15 16:30:00,28.1,11.8,30.21,East,92,0.0,0.0,50,0.00,,,0.01,Custom v0.1,2013-01-15 22:30:00,
2013-01-15 16:35:00,27.9,11.6,30.21,East,92,0.0,0.0,50,0.00,,,0.01,Custom v0.1,2013-01-15 22:35:00,
2013-01-15 16:40:00,27.8,11.0,30.21,East,92,0.0,0.0,49,0.00,,,0.01,Custom v0.1,2013-01-15 22:40:00,
2013-01-15 16:50:00,27.5,11.2,30.21,East,92,0.0,0.0,50,0.00,,,0.01,Custom v0.1,2013-01-15 22:50:00,
2013-01-15 16:55:00,27.3,10.6,30.21,East,92,0.0,0.0,49,0.00,,,0.01,Custom v0.1,2013-01-15 22:55:00,
2013-01-15 17:00:00,27.3,11.0,30.21,East,92,0.0,0.0,50,0.00,,,0.01,Custom v0.1,2013-01-15 23:00:00,
2013-01-15 17:05:00,27.2,10.9,30.21,East,92,0.0,0.0,50,0.00,,,0.01,Custom v0.1,2013-01-15 23:05:00,
2013-01-15 17:10:00,27.0,11.7,30.21,East,92,0.0,0.0,52,0.00,,,0.01,Custom v0.1,2013-01-15 23:10:00,
2013-01-15 17:15:00,26.9,11.6,30.21,East,92,0.0,0.0,52,0.00,,,0.01,Custom v0.1,2013-01-15 23:15:00,
2013-01-15 17:20:00,26.9,11.6,30.20,East,92,0.0,0.0,52,0.00,,,0.01,Custom v0.1,2013-01-15 23:20:00,
2013-01-15 17:25:00,26.7,11.8,30.20,East,92,0.0,0.0,53,0.00,,,0.01,Custom v0.1,2013-01-15 23:25:00,
2013-01-15 17:30:00,26.7,11.8,30.20,East,92,0.0,0.0,53,0.00,,,0.01,Custom v0.1,2013-01-15 23:30:00,
2013-01-15 17:35:00,26.6,12.2,30.21,East,92,0.0,0.0,54,0.00,,,0.01,Custom v0.1,2013-01-15 23:35:00,
2013-01-15 17:45:00,26.1,12.5,30.21,East,92,0.0,0.0,56,0.00,,,0.01,Custom v0.1,2013-01-15 23:45:00,
2013-01-15 17:50:00,26.0,12.4,30.21,East,92,0.0,0.0,56,0.00,,,0.01,Custom v0.1,2013-01-15 23:50:00,
2013-01-15 17:55:00,25.8,12.7,30.21,East,92,0.0,0.0,57,0.00,,,0.01,Custom v0.1,2013-01-15 23:55:00,
2013-01-15 18:00:00,25.6,12.5,30.21,East,92,0.0,0.0,57,0.00,,,0.01,Custom v0.1,2013-01-16 00:00:00,
2013-01-15 18:05:00,25.4,12.7,30.20,East,92,0.0,0.0,58,0.00,,,0.01,Custom v0.1,2013-01-16 00:05:00,
2013-01-15 18:10:00,25.1,12.8,30.20,East,92,0.0,0.0,59,0.00,,,0.01,Custom v0.1,2013-01-16 00:10:00,
2013-01-15 18:15:00,24.7,13.2,30.20,East,92,0.0,0.0,61,0.00,,,0.01,Custom v0.1,2013-01-16 00:15:00,
2013-01-15 18:20:00,24.4,12.9,30.20,East,92,0.0,0.0,61,0.00,,,0.01,Custom v0.1,2013-01-16 00:20:00,
2013-01-15 18:30:00,23.6,12.9,30.20,East,92,0.0,0.0,63,0.00,,,0.01,Custom v0.1,2013-01-16 00:30:00,
2013-01-15 18:40:00,23.2,12.5,30.20,East,92,0.0,0.0,63,0.00,,,0.01,Custom v0.1,2013-01-16 00:40:00,
2013-01-15 18:45:00,22.9,12.2,30.20,East,92,0.0,0.0,63,0.00,,,0.01,Custom v0.1,2013-01-16 00:45:00,
2013-01-15 18:55:00,22.5,12.6,30.20,East,92,0.0,0.0,65,0.00,,,0.01,Custom v0.1,2013-01-16 00:55:00,
2013-01-15 19:00:00,22.2,12.6,30.20,East,92,0.0,0.0,66,0.00,,,0.01,Custom v0.1,2013-01-16 01:00:00,
2013-01-15 19:05:00,22.1,12.5,30.20,East,92,0.0,0.0,66,0.00,,,0.01,Custom v0.1,2013-01-16 01:05:00,
2013-01-15 19:10:00,21.9,12.7,30.20,East,92,0.0,0.0,67,0.00,,,0.01,Custom v0.1,2013-01-16 01:10:00,
2013-01-15 19:15:00,21.6,12.0,30.20,East,92,0.0,0.0,66,0.00,,,0.01,Custom v0.1,2013-01-16 01:15:00,
2013-01-15 19:20:00,21.4,12.2,30.20,East,92,0.0,0.0,67,0.00,,,0.01,Custom v0.1,2013-01-16 01:20:00,
2013-01-15 19:30:00,20.8,12.6,30.20,East,92,0.0,0.0,70,0.00,,,0.01,Custom v0.1,2013-01-16 01:30:00,
2013-01-15 19:35:00,20.5,12.6,30.21,East,92,0.0,0.0,71,0.00,,,0.01,Custom v0.1,2013-01-16 01:35:00,
2013-01-15 19:40:00,20.2,12.7,30.21,East,92,0.0,0.0,72,0.00,,,0.01,Custom v0.1,2013-01-16 01:40:00,
2013-01-15 19:45:00,19.9,12.4,30.21,East,92,0.0,0.0,72,0.00,,,0.01,Custom v0.1,2013-01-16 01:45:00,
2013-01-15 19:50:00,19.5,12.0,30.21,East,92,0.0,0.0,72,0.00,,,0.01,Custom v0.1,2013-01-16 01:50:00,
2013-01-15 19:55:00,19.4,12.5,30.21,East,92,0.0,0.0,74,0.00,,,0.01,Custom v0.1,2013-01-16 01:55:00,
2013-01-15 20:00:00,19.1,12.2,30.21,East,92,0.0,0.0,74,0.00,,,0.01,Custom v0.1,2013-01-16 02:00:00,
2013-01-15 20:05:00,18.9,12.3,30.20,East,92,0.0,0.0,75,0.00,,,0.01,Custom v0.1,2013-01-16 02:05:00,
2013-01-15 20:15:00,18.4,12.1,30.20,East,92,0.0,0.0,76,0.00,,,0.01,Custom v0.1,2013-01-16 02:15:00,
2013-01-15 20:20:00,18.3,12.3,30.19,East,92,0.0,0.0,77,0.00,,,0.01,Custom v0.1,2013-01-16 02:20:00,
2013-01-15 20:25:00,18.0,12.0,30.19,East,92,0.0,0.0,77,0.00,,,0.01,Custom v0.1,2013-01-16 02:25:00,
2013-01-15 20:30:00,17.8,11.8,30.19,East,92,0.0,0.0,77,0.00,,,0.01,Custom v0.1,2013-01-16 02:30:00,
2013-01-15 20:35:00,17.5,11.5,30.19,East,92,0.0,0.0,77,0.00,,,0.01,Custom v0.1,2013-01-16 02:35:00,
2013-01-15 20:50:00,16.7,10.8,30.18,East,92,0.0,0.0,77,0.00,,,0.01,Custom v0.1,2013-01-16 02:50:00,
2013-01-15 20:55:00,16.4,10.8,30.18,East,92,0.0,0.0,78,0.00,,,0.01,Custom v0.1,2013-01-16 02:55:00,
2013-01-15 21:00:00,16.1,11.0,30.18,East,92,0.0,0.0,80,0.00,,,0.01,Custom v0.1,2013-01-16 03:00:00,
2013-01-15 21:10:00,15.7,10.9,30.18,East,92,0.0,0.0,81,0.00,,,0.01,Custom v0.1,2013-01-16 03:10:00,
2013-01-15 21:20:00,15.4,10.6,30.17,East,92,0.0,0.0,81,0.00,,,0.01,Custom v0.1,2013-01-16 03:20:00,
2013-01-15 21:25:00,15.2,10.7,30.17,East,92,0.0,0.0,82,0.00,,,0.01,Custom v0.1,2013-01-16 03:25:00,
2013-01-15 21:35:00,14.9,10.7,30.17,East,92,0.0,0.0,83,0.00,,,0.01,Custom v0.1,2013-01-16 03:35:00,
2013-01-15 21:40:00,14.8,10.6,30.17,East,92,0.0,0.0,83,0.00,,,0.01,Custom v0.1,2013-01-16 03:40:00,
2013-01-15 21:45:00,14.4,10.2,30.17,East,92,0.0,0.0,83,0.00,,,0.01,Custom v0.1,2013-01-16 03:45:00,
2013-01-15 21:55:00,14.1,10.1,30.16,East,92,0.0,0.0,84,0.00,,,0.01,Custom v0.1,2013-01-16 03:55:00,
2013-01-15 22:00:00,14.0,10.0,30.16,East,92,0.0,0.0,84,0.00,,,0.01,Custom v0.1,2013-01-16 04:00:00,
2013-01-15 22:05:00,14.0,10.0,30.15,East,92,0.0,0.0,84,0.00,,,0.01,Custom v0.1,2013-01-16 04:05:00,
2013-01-15 22:10:00,13.6,9.6,30.15,East,92,0.0,0.0,84,0.00,,,0.01,Custom v0.1,2013-01-16 04:10:00,
2013-01-15 22:15:00,13.5,9.5,30.15,East,92,0.0,0.0,84,0.00,,,0.01,Custom v0.1,2013-01-16 04:15:00,
2013-01-15 22:20:00,13.3,9.3,30.14,East,92,0.0,0.0,84,0.00,,,0.01,Custom v0.1,2013-01-16 04:20:00,
2013-01-15 22:25:00,13.1,9.1,30.14,East,92,0.0,0.0,84,0.00,,,0.01,Custom v0.1,2013-01-16 04:25:00,
2013-01-15 22:30:00,12.8,8.9,30.14,East,92,0.0,0.0,84,0.00,,,0.01,Custom v0.1,2013-01-16 04:30:00,
2013-01-15 22:35:00,12.6,8.7,30.15,East,92,0.0,0.0,84,0.00,,,0.01,Custom v0.1,2013-01-16 04:35:00,
2013-01-15 22:40:00,12.4,8.7,30.15,East,92,0.0,0.0,85,0.00,,,0.01,Custom v0.1,2013-01-16 04:40:00,
2013-01-15 22:45:00,12.4,8.7,30.15,East,92,0.0,0.0,85,0.00,,,0.01,Custom v0.1,2013-01-16 04:45:00,
2013-01-15 22:50:00,12.3,8.6,30.15,East,92,0.0,0.0,85,0.00,,,0.01,Custom v0.1,2013-01-16 04:50:00,
2013-01-15 22:55:00,12.1,8.4,30.15,East,92,0.0,0.0,85,0.00,,,0.01,Custom v0.1,2013-01-16 04:55:00,
2013-01-15 23:05:00,12.1,8.7,30.15,East,92,0.0,0.0,86,0.00,,,0.00,Custom v0.1,2013-01-16 05:05:00,
2013-01-15 23:10:00,11.9,8.5,30.15,East,92,0.0,0.0,86,0.00,,,0.00,Custom v0.1,2013-01-16 05:10:00,
2013-01-15 23:15:00,11.7,8.3,30.15,East,92,0.0,0.0,86,0.00,,,0.00,Custom v0.1,2013-01-16 05:15:00,
2013-01-15 23:20:00,11.6,8.2,30.14,East,92,0.0,0.0,86,0.00,,,0.00,Custom v0.1,2013-01-16 05:20:00,
2013-01-15 23:25:00,11.4,8.0,30.14,East,92,0.0,0.0,86,0.00,,,0.00,Custom v0.1,2013-01-16 05:25:00,
2013-01-15 23:30:00,11.2,7.8,30.14,East,92,0.0,0.0,86,0.00,,,0.00,Custom v0.1,2013-01-16 05:30:00,
2013-01-15 23:40:00,11.1,7.9,30.15,East,92,0.0,0.0,87,0.00,,,0.00,Custom v0.1,2013-01-16 05:40:00,
2013-01-15 23:45:00,11.1,7.9,30.15,East,92,0.0,0.0,87,0.00,,,0.00,Custom v0.1,2013-01-16 05:45:00,
2013-01-15 23:55:00,11.1,7.9,30.14,East,92,0.0,0.0,87,0.00,,,0.00,Custom v0.1,2013-01-16 05:55:00,